Regional Weather Roundup
Issued by NWS Little Rock, AR

Home | Current Version | Previous Version | Text Only | Print | Product List | Glossary Off
Versions: 1 2 3 4 5 6 7 8 9 10 11 12 13 14 15 16 17 18 19 20 21 22 23 24 25 26 27 28 29 30 31 32 33 34 35 36 37 38 39 40 41 42 43 44 45 46 47 48 49 50

000
ASUS44 KLZK 300405
RWRLZK

WEATHER ROUNDUP FOR ARKANSAS
NATIONAL WEATHER SERVICE LITTLE ROCK AR
1100 PM CDT TUE JUL 29 2014

NOTE: "FAIR" INDICATES FEW OR NO CLOUDS BELOW 12,000 FEET WITH NO
SIGNIFICANT WEATHER AND/OR OBSTRUCTIONS TO VISIBILITY.

ARZ001-003-010-029-300500-
NORTHWEST ARKANSAS

CITY           SKY/WX    TMP DP  RH WIND       PRES   REMARKS
FAYETTEVILLE   CLEAR     66  62  87 CALM      30.11S
FORT SMITH     MOCLDY    76  67  73 E3        30.06R
HARRISON       CLEAR     68  61  78 CALM      30.12R
BENTONVILLE    PTCLDY    70  61  73 CALM      30.12S
ROGERS         PTCLDY    70  62  76 CALM      30.12S
SILOAM SPGS    CLEAR     66  57  72 CALM      30.12S
HIGHFILL       PTCLDY    67  62  84 CALM      30.11R
$$

ARZ004-005-016-300500-
NORTH CENTRAL ARKANSAS

CITY           SKY/WX    TMP DP  RH WIND       PRES   REMARKS
BATESVILLE     CLEAR     70  61  73 SE5       30.10S
FLIPPIN        CLEAR     70  59  68 CALM      30.10R
MTN HOME       PTCLDY    70  60  70 S3        30.09S
$$

ARZ040-041-300500-
WEST CENTRAL ARKANSAS

CITY           SKY/WX    TMP DP  RH WIND       PRES   REMARKS
MENA           CLEAR     72  70  94 CALM      30.11R
MOUNT IDA      PTCLDY    70  68  93 CALM      30.08S
$$

ARZ009-017-025-026-028-300500-
NORTHEAST ARKANSAS

CITY           SKY/WX    TMP DP  RH WIND       PRES   REMARKS
CORNING        FAIR      66  63  88 S3        30.11R
JONESBORO      CLEAR     68  59  73 CALM      30.11R
NEWPORT        CLEAR     67  63  87 VRB7      30.11R
WALNUT RIDGE   CLEAR     68  59  73 SE6       30.10R
BLYTHEVILLE    CLEAR     65  57  75 SW3       30.11R
$$

ARZ022-023-033-042-044-300500-
CENTRAL ARKANSAS

CITY           SKY/WX    TMP DP  RH WIND       PRES   REMARKS
LITTLE ROCK    MOCLDY    72  62  71 SE5       30.09S
N LITTLE ROCK  MOCLDY    73  64  74 SE6       30.09S
JACKSONVILLE   CLEAR     70  63  79 E2        30.09S
SEARCY         CLEAR     68  64  86 CALM      30.11S
HOT SPRINGS    PTCLDY    73  65  75 E5        30.10R
RUSSELLVILLE   PTCLDY    70  67  90 CALM      30.08R
CLINTON        FAIR      66  64  94 CALM      30.11R
$$

ARZ036-300500-
EAST ARKANSAS

CITY           SKY/WX    TMP DP  RH WIND       PRES   REMARKS
WEST MEMPHIS   CLEAR     63  60  90 CALM      30.10R
$$

ARZ050-053-066-070-073-300500-
SOUTHWEST ARKANSAS

CITY           SKY/WX    TMP DP  RH WIND       PRES   REMARKS
ARKADELPHIA    FAIR      72  70  93 CALM      30.09S
CAMDEN         CLEAR     72  61  68 CALM      30.09R
TEXARKANA      CLEAR     75  66  73 E3        30.07F
EL DORADO      CLEAR     72  64  76 CALM      30.09S
DE QUEEN       CLEAR     72  71  97 NE3       30.06R
$$

ARZ056-057-069-300500-
SOUTHEAST ARKANSAS

CITY           SKY/WX    TMP DP  RH WIND       PRES   REMARKS
PINE BLUFF     PTCLDY    68  64  87 CALM      30.10S
STUTTGART      CLEAR     72  59  64 E7        30.10F
MONTICELLO     PTCLDY    69  62  78 CALM      30.09S

$$





USA.gov is the U.S. government's official web portal to all federal, state and local government web resources and services.